Location: Spruce Knob
(38.6995°N, 79.5330°W)
Time: 05:22:10
(UTC-05:00)

Vanguard 2 Rocket - Visible Passes

Search period start: 19 January 2022 00:00
Search period end: 29 January 2022 00:00
Orbit: 554 x 3325 km, 32.9° (Epoch: 18 January)

Date Brightness Start Highest point End Pass type
(mag) Time Alt. Az. Time Alt. Az. Time Alt. Az.
19 Jan 10.2 01:58:57 33° ESE 01:58:57 33° ESE 02:11:34 10° E visible
19 Jan 9.6 04:04:43 50° SSW 04:10:55 64° SSE 04:29:55 10° E visible
19 Jan 9.7 06:10:31 14° W 06:29:18 73° S 06:45:44 10° ESE visible
20 Jan 10.7 01:02:33 18° E 01:02:33 18° E 01:07:52 10° E visible
20 Jan 9.6 03:08:20 56° SSE 03:08:42 56° SSE 03:28:01 10° E visible
20 Jan 9.6 05:14:07 31° WSW 05:26:44 73° S 05:44:52 10° E visible
21 Jan 10.0 02:11:51 41° ESE 02:11:51 41° ESE 02:25:31 10° E visible
21 Jan 9.5 04:17:38 51° SW 04:24:08 70° SSE 04:43:29 10° E visible
21 Jan 9.7 06:23:24 12° W 06:42:39 71° S 06:59:10 10° ESE visible
22 Jan 10.6 01:15:19 23° E 01:15:19 23° E 01:22:21 10° E visible
22 Jan 9.4 03:21:06 64° SSE 03:21:44 64° SSE 03:41:35 10° E visible
22 Jan 9.6 05:26:52 28° W 05:40:07 73° S 05:58:22 10° ESE visible
23 Jan 9.8 02:24:31 48° ESE 02:24:31 48° ESE 02:39:11 10° E visible
23 Jan 9.5 04:30:17 50° WSW 04:37:27 73° S 04:57:00 10° E visible
23 Jan 9.8 06:36:04 10° W 06:55:53 65° SSW 07:12:26 10° ESE visible
24 Jan 10.4 01:27:55 28° E 01:27:55 28° E 01:36:16 10° E visible
24 Jan 9.3 03:33:40 69° S 03:34:55 70° SSE 03:55:06 10° E visible
24 Jan 9.7 05:39:27 25° W 05:53:27 71° S 06:11:44 10° ESE visible
25 Jan 10.9 00:31:16 13° E 00:31:16 13° E 00:32:48 10° E visible
25 Jan 9.7 02:37:02 55° ESE 02:37:02 55° ESE 02:52:43 10° E visible
25 Jan 9.5 04:42:48 46° WSW 04:50:49 73° S 05:10:26 10° ESE visible
25 Jan 9.9 06:49:31 10° W 07:08:56 57° SSW 07:25:24 10° SE visible
26 Jan 10.2 01:40:23 33° E 01:40:23 33° E 01:49:54 10° E visible
26 Jan 9.3 03:46:08 69° SSW 03:48:15 73° S 04:08:34 10° E visible
26 Jan 9.7 05:51:55 22° W 06:06:40 65° SSW 06:24:54 10° ESE visible
27 Jan 10.8 00:43:43 16° E 00:43:43 16° E 00:46:42 10° E visible
27 Jan 9.5 02:49:28 61° ESE 02:49:28 61° ESE 03:06:11 10° E visible
27 Jan 9.5 04:55:15 41° WSW 05:04:10 70° S 05:23:44 10° ESE visible
28 Jan 10.1 01:52:50 37° E 01:52:50 37° E 02:03:24 10° E visible
28 Jan 9.2 03:58:35 66° SW 04:01:37 73° S 04:21:57 10° ESE visible
28 Jan 9.8 06:04:21 19° W 06:19:43 57° SSW 06:37:46 10° SE visible
